• In Deutschland
  • Länderverzeichnis
  • Für 7 Tage
  • Wassertemperatur
  • Satellitenkarten
  • Wetterkarte
  • Widgets
  • user-avatar
    Anmelden

    Stündliche Wetter Ludwigsburg

    Heute, 14 Dezember, Donnerstag

    Zeit Temperatur Niederschläge Wind Luftdruck Luftfeuchtigkeit
    00:00 +4°C° 0,7 mm 8 m/S 723 mmHg 82%
    01:00 +5°C° 0,7 mm 9 m/S 722 mmHg 82%
    02:00 +5°C° 1 mm 8 m/S 722 mmHg 83%
    03:00 +4°C° 1 mm 8 m/S 722 mmHg 84%
    04:00 +4°C° 1 mm 8 m/S 722 mmHg 85%
    05:00 +4°C° 1 mm 8 m/S 723 mmHg 82%
    06:00 +2°C° 1 mm 9 m/S 723 mmHg 80%
    07:00 +2°C° 1 mm 9 m/S 724 mmHg 77%
    08:00 +1°C° 0,1 mm 8 m/S 725 mmHg 77%
    09:00 +1°C° 0,1 mm 8 m/S 726 mmHg 76%
    10:00 +2°C° 0,1 mm 7 m/S 727 mmHg 75%
    11:00 +2°C° 0 mm 7 m/S 727 mmHg 74%
    12:00 +3°C° 0 mm 7 m/S 727 mmHg 73%
    13:00 +3°C° 0 mm 7 m/S 727 mmHg 72%
    14:00 +3°C° 0 mm 6 m/S 726 mmHg 74%
    15:00 +2°C° 0 mm 5 m/S 725 mmHg 76%
    16:00 +3°C° 0 mm 4 m/S 725 mmHg 78%
    17:00 +3°C° 0 mm 4 m/S 724 mmHg 80%
    18:00 +3°C° 0 mm 4 m/S 724 mmHg 82%
    19:00 +3°C° 0 mm 4 m/S 723 mmHg 84%
    20:00 +2°C° 0,2 mm 5 m/S 723 mmHg 84%
    21:00 +2°C° 0,2 mm 5 m/S 722 mmHg 85%
    22:00 +2°C° 0,2 mm 5 m/S 721 mmHg 85%
    23:00 +2°C° 0,7 mm 5 m/S 721 mmHg 86%

    Morgen, 15 Dezember, Freitag

    Zeit Temperatur Niederschläge Wind Luftdruck Luftfeuchtigkeit
    00:00 +2°C° 0,7 mm 5 m/S 721 mmHg 87%
    01:00 +3°C° 0,7 mm 4 m/S 721 mmHg 88%
    02:00 +2°C° 0,5 mm 5 m/S 722 mmHg 87%
    03:00 +2°C° 0,5 mm 5 m/S 723 mmHg 86%
    04:00 +1°C° 0,5 mm 6 m/S 723 mmHg 85%
    05:00 +1°C° 0,1 mm 5 m/S 724 mmHg 85%
    06:00 0°C° 0,1 mm 5 m/S 724 mmHg 84%
    07:00 0°C° 0,1 mm 5 m/S 725 mmHg 84%
    08:00 0°C° 0,1 mm 5 m/S 725 mmHg 83%
    09:00 +1°C° 0,1 mm 5 m/S 725 mmHg 82%
    10:00 +1°C° 0,1 mm 5 m/S 725 mmHg 81%
    11:00 +1°C° 0,2 mm 5 m/S 725 mmHg 80%
    12:00 +2°C° 0,2 mm 6 m/S 725 mmHg 79%
    13:00 +3°C° 0,2 mm 6 m/S 725 mmHg 78%
    14:00 +2°C° 0,1 mm 5 m/S 725 mmHg 80%
    15:00 +2°C° 0,1 mm 5 m/S 725 mmHg 82%
    16:00 +3°C° 0,1 mm 4 m/S 726 mmHg 84%
    17:00 +2°C° 0 mm 3 m/S 726 mmHg 86%
    18:00 +1°C° 0 mm 3 m/S 726 mmHg 88%
    19:00 +1°C° 0 mm 2 m/S 726 mmHg 90%
    20:00 +1°C° 0,1 mm 2 m/S 727 mmHg 90%
    21:00 +1°C° 0,1 mm 2 m/S 727 mmHg 90%
    22:00 +2°C° 0,1 mm 1 m/S 727 mmHg 91%
    23:00 +2°C° 0,2 mm 1 m/S 728 mmHg 91%

    übermorgen, 16 Dezember, Samstag

    Zeit Temperatur Niederschläge Wind Luftdruck Luftfeuchtigkeit
    00:00 +3°C° 0,2 mm 1 m/S 728 mmHg 92%
    01:00 +3°C° 0,2 mm 1 m/S 728 mmHg 92%
    02:00 +2°C° 0 mm 1 m/S 729 mmHg 93%
    03:00 +2°C° 0 mm 1 m/S 729 mmHg 94%
    04:00 +2°C° 0 mm 1 m/S 729 mmHg 95%
    05:00 +1°C° 0 mm 2 m/S 730 mmHg 95%
    06:00 +1°C° 0 mm 2 m/S 730 mmHg 95%
    07:00 +1°C° 0 mm 2 m/S 731 mmHg 95%
    08:00 +1°C° 0,1 mm 2 m/S 732 mmHg 94%
    09:00 +1°C° 0,1 mm 2 m/S 732 mmHg 93%
    10:00 +2°C° 0,1 mm 2 m/S 733 mmHg 92%
    11:00 +1°C° 0,1 mm 3 m/S 734 mmHg 91%
    12:00 +1°C° 0,1 mm 3 m/S 734 mmHg 89%
    13:00 +2°C° 0,1 mm 3 m/S 734 mmHg 88%
    14:00 +1°C° 0,1 mm 3 m/S 735 mmHg 89%
    15:00 +1°C° 0,1 mm 3 m/S 735 mmHg 89%
    16:00 +1°C° 0,1 mm 3 m/S 735 mmHg 90%
    17:00 0°C° 0,1 mm 3 m/S 736 mmHg 91%
    18:00 0°C° 0,1 mm 3 m/S 737 mmHg 92%
    19:00 0°C° 0,1 mm 3 m/S 737 mmHg 93%
    20:00 0°C° 0 mm 3 m/S 738 mmHg 93%
    21:00 -1°C° 0 mm 3 m/S 738 mmHg 93%
    22:00 -1°C° 0 mm 3 m/S 739 mmHg 93%
    23:00 -1°C° 0 mm 3 m/S 739 mmHg 93%

    17 Dezember, Sonntag

    Zeit Temperatur Niederschläge Wind Luftdruck Luftfeuchtigkeit
    00:00 -1°C° 0 mm 3 m/S 740 mmHg 93%
    01:00 -1°C° 0 mm 3 m/S 740 mmHg 93%
    02:00 -2°C° 0 mm 4 m/S 740 mmHg 93%
    03:00 -2°C° 0 mm 4 m/S 741 mmHg 93%
    04:00 -2°C° 0 mm 4 m/S 741 mmHg 92%
    05:00 -2°C° 0,2 mm 4 m/S 741 mmHg 92%
    06:00 -2°C° 0,2 mm 5 m/S 742 mmHg 91%
    07:00 -2°C° 0,2 mm 5 m/S 742 mmHg 90%
    08:00 -2°C° 0,4 mm 5 m/S 742 mmHg 90%
    09:00 -1°C° 0,4 mm 5 m/S 743 mmHg 90%
    10:00 -1°C° 0,4 mm 5 m/S 743 mmHg 90%
    11:00 -1°C° 0,3 mm 5 m/S 744 mmHg 90%
    12:00 -1°C° 0,3 mm 4 m/S 744 mmHg 90%
    13:00 -1°C° 0,3 mm 4 m/S 744 mmHg 90%
    14:00 -1°C° 0,2 mm 4 m/S 744 mmHg 90%
    15:00 -1°C° 0,2 mm 4 m/S 744 mmHg 90%
    16:00 0°C° 0,2 mm 3 m/S 745 mmHg 91%
    17:00 0°C° 0,1 mm 3 m/S 745 mmHg 92%
    18:00 -1°C° 0,1 mm 3 m/S 746 mmHg 93%
    19:00 -1°C° 0,1 mm 3 m/S 746 mmHg 93%
    20:00 -1°C° 0 mm 3 m/S 746 mmHg 93%
    21:00 -1°C° 0 mm 3 m/S 747 mmHg 93%
    22:00 -1°C° 0 mm 3 m/S 747 mmHg 93%
    23:00 -1°C° 0 mm 3 m/S 746 mmHg 92%

    18 Dezember, Montag

    Zeit Temperatur Niederschläge Wind Luftdruck Luftfeuchtigkeit
    00:00 -1°C° 0 mm 3 m/S 746 mmHg 91%
    01:00 -2°C° 0 mm 4 m/S 746 mmHg 90%
    02:00 -2°C° 0,2 mm 4 m/S 745 mmHg 89%
    03:00 -1°C° 0,2 mm 5 m/S 745 mmHg 88%
    04:00 -2°C° 0,2 mm 6 m/S 744 mmHg 87%
    05:00 -1°C° 1,4 mm 6 m/S 743 mmHg 87%
    06:00 -1°C° 1,4 mm 7 m/S 742 mmHg 88%
    07:00 0°C° 1,4 mm 8 m/S 742 mmHg 89%
    08:00 0°C° 1,8 mm 8 m/S 741 mmHg 90%
    09:00 0°C° 1,8 mm 7 m/S 741 mmHg 91%
    10:00 +2°C° 1,8 mm 7 m/S 741 mmHg 92%
    11:00 +2°C° 1,1 mm 7 m/S 741 mmHg 93%
    12:00 +2°C° 1,1 mm 6 m/S 740 mmHg 94%
    13:00 +3°C° 1,1 mm 6 m/S 740 mmHg 95%
    14:00 +3°C° 0,4 mm 5 m/S 740 mmHg 95%
    15:00 +3°C° 0,4 mm 5 m/S 741 mmHg 95%
    16:00 +4°C° 0,4 mm 4 m/S 741 mmHg 95%
    17:00 +3°C° 0,1 mm 4 m/S 742 mmHg 94%
    18:00 +3°C° 0,1 mm 3 m/S 742 mmHg 92%
    19:00 +2°C° 0,1 mm 3 m/S 743 mmHg 91%
    20:00 +2°C° 0 mm 2 m/S 744 mmHg 91%
    21:00 +2°C° 0 mm 2 m/S 744 mmHg 92%
    22:00 +1°C° 0 mm 2 m/S 745 mmHg 92%
    23:00 +1°C° 0 mm 2 m/S 745 mmHg 92%

    19 Dezember, Dienstag

    Zeit Temperatur Niederschläge Wind Luftdruck Luftfeuchtigkeit
    00:00 -1°C° 0 mm 2 m/S 746 mmHg 92%
    01:00 -1°C° 0 mm 2 m/S 746 mmHg 93%
    02:00 -1°C° 0 mm 2 m/S 746 mmHg 93%
    03:00 -1°C° 0 mm 2 m/S 747 mmHg 92%
    04:00 +2°C° 0 mm 1 m/S 747 mmHg 92%
    05:00 +1°C° 0 mm 1 m/S 747 mmHg 93%
    06:00 +1°C° 0 mm 1 m/S 747 mmHg 93%
    07:00 +1°C° 0 mm 1 m/S 748 mmHg 93%
    08:00 +1°C° 0 mm 1 m/S 748 mmHg 93%
    09:00 +2°C° 0 mm 1 m/S 749 mmHg 92%
    10:00 +2°C° 0 mm 1 m/S 749 mmHg 91%
    11:00 +3°C° 0 mm 1 m/S 749 mmHg 91%
    12:00 +3°C° 0 mm 1 m/S 749 mmHg 90%
    13:00 +4°C° 0 mm 1 m/S 750 mmHg 90%
    14:00 +4°C° 0 mm 1 m/S 750 mmHg 91%
    15:00 +2°C° 0 mm 0 m/S 750 mmHg 92%
    16:00 +2°C° 0 mm 0 m/S 750 mmHg 94%
    17:00 +1°C° 0 mm 0 m/S 750 mmHg 94%
    18:00 +1°C° 0 mm 0 m/S 751 mmHg 94%
    19:00 +1°C° 0 mm 0 m/S 751 mmHg 94%
    20:00 +1°C° 0 mm 0 m/S 751 mmHg 94%
    21:00 0°C° 0 mm 0 m/S 752 mmHg 94%
    22:00 0°C° 0 mm 0 m/S 752 mmHg 94%
    23:00 0°C° 0 mm 0 m/S 752 mmHg 94%
    Mehr zeigen